www.pogodaiklimat.ru

Погода и климат >> Архив погоды >> Бенин >> Kandi


ПОГОДА в Kandi

  • Прогноз погоды в Kandi
  • Монитор погоды в Kandi
  • Климат города

АРХИВ ПОГОДЫ в Kandi

Время (UTC), дата Ветер
(напр.,м/с)
 
Видим.   Явления Облачность Т
(С)
Тd
(С)
f
(%)
Тe
(С)
Тes
(С)
Комфортность P
(гПа)
Po
(гПа)
Тmin
(С)
Tmax
(С)
R
(мм)
R24
(мм)
S
(см)
21 19.04 Ю 1 6000 м мгла 6/0
[Ci sp]
+33.8 +11.1 25 +33 +33 жарко 1005.2 973.3
00 20.04 Ю 1 6000 м мгла 6/0
[Ci sp]
+31.0 +10.5 28 +31 +31 жарко 1005.3 973.5
03 20.04 Ю 3 6000 м мгла 6/0
[Ci sp]
+31.0 +22.1 59 +40 +40 очень
душно
1004.8 973.1
06 20.04 Ю 2 6000 м мгла 6/0
[Ci sp]
+29.8 +23.4 69 +40 +41 очень
душно
1006.6 974.7 +29.5
09 20.04 З 2 6000 м мгла 6/0
[Ci sp]
+33.3 +23.1 55 +44 +55 опасность
перегрева
1008.3 976.2
12 20.04 С 3 6000 м мгла 6/1 900 м
[Cu hum Ci sp]
+38.3 +19.0 33 +43 +57 опасность
перегрева
1006.4 974.5
18 20.04 В 1 6000 м мгла 9/4 600 м
[Cb cap Ci sp]
+38.5 +14.4 24 +39 +39 душно 1004.1 972.2 +40.8
00 21.04 Ю 2 6000 м мгла 6/0
[Ci sp]
+31.6 +17.9 44 +36 +36 очень
душно
1006.1 974.3
06 21.04 штиль 0 6000 м мгла 6/0
[Ci sp]
+29.2 +20.5 59 +36 +36 очень
душно
1006.7 974.8 +28.9
12 21.04 Ю 2 8000 м мгла 6/0
[Ci sp]
+36.5 +20.2 39 +43 +62 опасность
перегрева
1007.6 975.6
18 21.04 Ю 2 8000 м мгла 8/0
[Cs]
+36.7 +17.2 32 +40 +40 очень
душно
1005.4 973.4 +39.7
00 22.04 ЮЗ 2 8000 м мгла 6/0
[Ci sp]
+31.1 +21.3 56 +39 +39 очень
душно
1008.4 976.4
06 22.04 ЮЗ 2 10 км 6/0
[Ci sp]
+28.9 +21.8 66 +37 +37 очень
душно
1008.1 976.0 +28.5
12 22.04 З 2 10 км 6/1 900 м
[Cu hum Ci sp]
+37.1 +20.0 37 +43 +60 опасность
перегрева
1008.0 976.0
18 22.04 Ю 2 8000 м мгла {гроза, дождь} 9/6 600 м
[Cu Sc Ac As Ci sp]
+32.2 +22.0 55 +41 +41 опасность
перегрева
1005.6 973.3 +39.3 0.4
00 23.04 ЮЗ 2 8000 м мгла 9/0
[Ac As Ci sp]
+31.0 +17.3 44 +35 +35 очень
душно
1007.7 975.7
06 23.04 ЮЗ 3 18 км 9/0
[Ac trans Ci sp]
+29.0 +20.2 59 +35 +36 очень
душно
1009.2 976.8 +28.5 0.4
12 23.04 З 5 10 км 8/0
[Ac trans Ci sp]
+37.6 +20.1 36 +43 +51 опасность
перегрева
1008.6 976.6
18 23.04 ЮВ 1 8000 м мгла 9/4 600 м
[Cb cap Ci sp]
+36.4 +18.5 35 +41 +41 опасность
перегрева
1005.7 973.6 +40.0
00 24.04 З 1 8000 м мгла 6/0
[Ci sp]
+30.4 +19.3 52 +36 +36 очень
душно
1008.7 976.7
06 24.04 Ю 2 8000 м мгла 6/0
[Ci sp]
+27.8 +19.3 60 +33 +34 очень
душно
1008.5 976.3 +27.4
12 24.04 СЗ 4 10 км 6/0
[Ci sp]
+37.7 +17.9 31 +41 +51 опасность
перегрева
1008.3 976.3
18 24.04 ЮВ 1 8000 м мгла 9/3 900 м
[Cb cap Ac trans Ci sp]
+37.9 +16.6 29 +40 +40 очень
душно
1005.4 973.4 +41.0
00 25.04 ЮЗ 3 8000 м мгла 6/0
[Ci sp]
+32.8 +20.7 49 +40 +40 очень
душно
1007.2 975.4
06 25.04 ЮЗ 3 8000 м мгла 6/0
[Ci sp]
+29.0 +22.5 68 +38 +38 очень
душно
1008.2 976.1 +28.6
12 25.04 З 2 10 км 6/1 900 м
[Cu hum Ci sp]
+38.5 +20.8 36 +45 +62 опасность
перегрева
1007.7 975.9
18 25.04 З 2 10 км в посл. час гроза {дождь} 9/4 600 м
[Cb cap Ac As Ci sp]
+33.5 +19.6 44 +39 +39 очень
душно
1004.9 972.8 +40.5 0.0
00 26.04 ЮЗ 1 10 км 9/0
[Ac As Ci sp]
+29.7 +19.7 55 +36 +36 очень
душно
1007.5 975.5
06 26.04 ЮЗ 3 10 км 6/0
[Ci sp]
+27.6 +23.5 78 +37 +38 очень
душно
1007.3 975.0 +27.5 0.0
12 26.04 З 3 10 км 8/1 480 м
[Cu hum Cs]
+36.0 +22.5 46 +45 +59 опасность
перегрева
1008.4 976.3
18 26.04 З 2 8000 м гроза без осадков 9/3 600 м
[Cb cap Ci sp]
+37.0 +20.5 38 +43 +43 опасность
перегрева
1005.8 973.7 +38.9

 

Местоположение метеостанции Kandi (Бенин): широта 11.13 долгота 2.93 высота над уровнем моря 292 м.

В архиве по умолчанию представлена погода в Kandi за последнюю неделю. Архивные данные за месяц целиком и за предыдущие месяцы, начиная с января 2011 года, Вы можете получить, выбрав интересующий диапазон дат из раскрывающегося списка и нажав кнопку "Ввод!".

Внимание! Время в таблицах - всемирное. Для получения местного времени необходимо прибавить поправку, которая в Kandi равна 1 ч.

Смотрите также архив погоды в соседних городах и на ближайших метеорологических станциях:

Погода в Gaya (Нигер) (101 км)
Погода в Natitingou (Бенин) (192 км)
Погода в Yelwa (Нигерия) (201 км)
Погода в Parakou (Бенин) (201 км)
Погода в Dosso (Нигер) (211 км)
Погода в Niamtougou (Того) (251 км)
Погода в Kara (Того) (261 км)
Погода в Niamey-Aero (Нигер) (274 км)
Погода в Mango (Того) (282 км)
Погода в Dapaon (Того) (283 км)

Пояснения к столбцам:

Ветер - указаны скорость ветра в м/с - средняя за 10 мин, порывы в срок и между сроками (в фигурных скобках) и направление, откуда дует ветер: С - северный, СВ - северо-восточный, В - восточный, ЮВ - юго-восточный, Ю - южный, ЮЗ - юго-западный, З - западный, СЗ - северо-западный.
Видимость - горизонтальная дальность видимости в метрах или километрах. При видимости от 1 до 10 км при отсутствии осадков обычно наблюдается дымка, при ухудшении видимости до 1 км и менее - туман. В сухую погоду видимость может ухудшаться дымом, пылью или мглою.
Явления - указаны атмосферные явления, наблюдавшиеся в срок или в последний час перед сроком; фигурными скобками обозначены явления, наблюдавшиеся между сроками (за 1-3 часа до срока); квадратными скобками обозначены град или гололедные отложения с указанием их диаметра в мм.
Облачность - указаны через наклонную черту общая и нижняя облачность в баллах и высота нижней границы облаков в метрах; квадратными скобками обозначены формы облаков: Ci - перистые, Cs - перисто-слоистые, Cc - перисто-кучевые, Ac - высококучевые, As - высокослоистые, Sc - слоисто-кучевые, Ns - слоисто-дождевые, Cu - кучевые, Cb - кучево-дождевые. Подробнее классификацию облаков см. в Атласе облаков (PDF).
T - Температура воздуха - температура, измеренная на высоте 2 м над землей.
Td - Температура точки росы - температура, при понижении до которой содержащийся в воздухе водяной пар достигнет насыщения.
f - Относительная влажность воздуха - влажноcть воздуха, измеренная на высоте 2 м над землей.
Te - Эффективная температура - температура, которую ощущает одетый по сезону человек в тени. Характеристика душности погоды. При расчете учитывается влияние влажности воздуха и скорости ветра на теплоощущения человека.
Tes - Эффективная температура на солнце - температура, которую ощущает человек, с поправкой на солнечный нагрев. Характеристика знойности погоды. Зависит от высоты солнца над горизонтом, облачности и скорости ветра. Ночью, в пасмурную погоду, а также при ветре 12 м/с и более поправка равна нулю.
P - Атмосферное давление - приведенное к уровню моря атмосферное давление.
Po - Атмосферное давление - измеренное на уровне метеостанции атмосферное давление.
Tmin - Минимальная температура - минимум температуры воздуха на высоте 2 м над землей.
Tmax - Максимальная температура - максимум температуры воздуха на высоте 2 м над землей.
R - Количество осадков - Количество выпавших осадков за период времени, мм. При наведении курсора мыши на число - период времени, за который выпало указанное количество осадков.
R24 - Количество осадков - Количество выпавших осадков за 24 часа, мм.
S - Снежный покров - Высота снежного покрова, см. При наведении курсора мыши на число - состояние снежного покрова и степень покрытия местности в баллах.